Weather Service Report


079 
ASUS46 KSTO 080609
RWRCA 

NORTHERN AND CENTRAL CA REGIONAL WEATHER ROUNDUP
NATIONAL WEATHER SERVICE SACRAMENTO CA 
1000 PM PST SUN FEB 07 2016

NOTE: FAIR INDICATES FEW OR NO CLOUDS BELOW 12,000 FEET WITH NO
SIGNIFICANT WEATHER AND/OR OBSTRUCTIONS TO VISIBILITY.

CAZ001-003-080700-
NORTHWEST AREA
  
CITY           SKY/WX    TMP DP  RH WIND       PRES   REMARKS
CRESCENT CITY  CLEAR     66  47  50 NE9       30.25F                  
ARCATA         NOT AVBL                                               
SHELTER COVE   NOT AVBL                                               
UKIAH          CLEAR     52  47  83 CALM      30.22S                  
$$

CAZ006-505>513-080700-
BAY AREA
  
CITY           SKY/WX    TMP DP  RH WIND       PRES   REMARKS
SANTA ROSA     CLEAR     52  46  80 S7        30.19S                  
SAN RAFAEL     N/A       57  MM  MM MISG
NAPA           CLEAR     61  47  59 E14       30.22R                  
CONCORD        CLEAR     53  46  77 NW7       30.23R                  
OAKLAND CITY   N/A       59  MM  MM MISG
OAKLAND        CLEAR     57  49  74 NW3       30.20F                  
SAN FRAN CITY  N/A       62  MM  60 MISG
SAN FRAN ARPT  CLEAR     57  49  74 CALM      30.20S                  
LIVERMORE      CLEAR     54  44  69 NE8       30.21S                  
HAYWARD        CLEAR     58  45  62 CALM      30.20S                  
REDWOOD CITY   N/A       MM  MM  MM MISG
MOFFETT ARPT   CLEAR     59  47  64 CALM      30.21R                  
SAN JOSE ARPT  CLEAR     58  43  57 E3        30.20S                  
$$
CAZ034-037-514>518-080700-
CENTRAL COAST
  
CITY           SKY/WX    TMP DP  RH WIND       PRES   REMARKS
WATSONVILLE    CLEAR     56  45  66 N5        30.19S                  
SALINAS        CLEAR     57  46  66 E12       30.19S                  
MONTEREY       CLEAR     57  43  59 E7        30.18S                  
PT PIEDRAS BLS NOT AVBL                                               
SAN LUIS OBISP CLEAR     54  42  64 E7        30.16S                  
SANTA MARIA    CLEAR     53  39  59 E3        30.16S                  
$$
CAZ015-016-080700-
NORTHERN SACRAMENTO VALLEY
  
CITY           SKY/WX    TMP DP  RH WIND       PRES   REMARKS
REDDING        CLEAR     70  37  29 N16G28    30.31S                  
RED BLUFF      CLEAR     65  41  41 NW7       30.32R                  
OROVILLE       CLEAR     58  48  69 S3        30.28R                  
$$
CAZ016>018-080700-
SOUTHERN SACRAMENTO VALLEY
  
CITY           SKY/WX    TMP DP  RH WIND       PRES   REMARKS
AUBURN         CLEAR     52  45  76 CALM      30.29R                  
BEALE AFB      CLEAR     50  48  93 N5        30.25R                  
LINCOLN        FAIR      45  43  93 E5        30.25S                  
MARYSVILLE     CLEAR     49  47  93 NE3       30.27R                  
PLACERVILLE    FAIR      61  28  29 N5        30.32R                  
SAC INTL ARPT  CLEAR     51  47  86 E3        30.25R                  
MATHER AIRPORT NOT AVBL                                               
DOWNTOWN SAC   N/A       53  MM  MM MISG
SAC EXEC ARPT  CLEAR     50  46  86 CALM      30.25S                  
VACAVILLE      CLEAR     49  45  86 CALM      30.26R                  
TRAVIS AFB     CLEAR     49  47  95 N7        30.23R                  
$$
CAZ019>021-080700-
SAN JOAQUIN VALLEY
  
CITY           SKY/WX    TMP DP  RH WIND       PRES   REMARKS
STOCKTON       CLEAR     50  44  80 E6        30.23S                  
MODESTO        CLEAR     49  45  86 CALM      30.24R                  
MERCED         CLEAR     47  44  90 CALM      30.24S FOG              
LEMOORE        NOT AVBL                                               
FRESNO         CLEAR     51  46  83 E3        30.26S                  
HANFORD        CLEAR     49  46  90 CALM      30.27R FOG              
PORTERVILLE    CLEAR     45  44  97 SE5       30.27S FOG              
BAKERSFIELD    CLEAR     51  47  86 CALM      30.26R FOG              
$$
CAZ011-012-071-080700-
NORTHERN MOUNTAINS
  
CITY           SKY/WX    TMP DP  RH WIND       PRES   REMARKS
YREKA          CLEAR     45  38  76 VRB3      30.50S                  
MOUNT SHASTA   CLEAR     38  33  82 CALM      30.50S                  
ALTURAS        CLEAR     33  31  92 NE5       30.56S FOG     WCI  29  
$$
CAZ011-012-071-080700-
SIERRA NEVADA MTNS
  
CITY           SKY/WX    TMP DP  RH WIND       PRES   REMARKS
BLUE CANYON    CLEAR     52  21  29 E13G23    30.40R                  
TRUCKEE        CLEAR     28  25  86 CALM      30.57R                  
TAHOE VLY ARPT CLEAR     28  23  81 CALM      30.54R                  
MAMMOTH LAKES  FAIR      30  21  69 CALM      30.59R                  
$$
  

Return to Home page


Western Regional Climate Center, wrcc@dri.edu